Regional Weather Roundup
Issued by NWS

Home | Current Version | Previous Version | Text Only | Print | Product List | Glossary Off
Versions: 1 2 3 4 5 6 7 8 9 10 11 12 13 14 15 16 17 18 19 20 21 22 23 24 25 26 27 28 29 30 31 32 33 34 35 36 37 38 39 40 41 42 43 44 45 46 47 48 49 50

000
ASUS44 KMEG 242300
RWRTN
TENNESSEE HOURLY STATE WEATHER ROUNDUP
NATIONAL WEATHER SERVICE MEMPHIS TN
500 PM CST SAT JAN 24 2015

TNZ002-004-019-021-049-052-054-088>092-250000-
WEST TENNESSEE

CITY           SKY/WX    TMP DP  RH WIND       PRES   REMARKS
MEMPHIS INTL   PTCLDY    52  33  48 SW6       29.92F
NWS MEMPHIS      N/A     53 N/A N/A MISG        N/A
JACKSON        CLEAR     50  26  39 SW9       29.89F
DYERSBURG      CLEAR     50  25  37 SW12      29.90F
UNION CITY     CLEAR     46  32  57 SW8       29.86S
PARIS          CLEAR     46  28  49 W8        29.86S
LEXINGTON      CLEAR     48  28  46 SW8       29.88F
SAVANNAH       CLEAR     48  32  53 S8        29.92S
$$

TNZ008-025-027-028-033-062-065-066-250000-
NORTH MIDDLE TENNESSEE

CITY           SKY/WX    TMP DP  RH WIND       PRES   REMARKS
NASHVILLE      CLEAR     47  31  53 SW6       29.88S
CLARKSVILLE    CLEAR     48  30  49 W6        29.85S
COOKEVILLE     CLEAR     43  30  61 W7        29.87R
CROSSVILLE     CLEAR     38  28  67 SW6       29.85R WCI  33
$$

TNZ061-075-076-078-094-096-097-250000-
SOUTH MIDDLE TENNESSEE

CITY           SKY/WX    TMP DP  RH WIND       PRES   REMARKS
FAYETTEVILLE   CLEAR     41  28  60 MISG      29.91F
TULLAHOMA      CLEAR     41  30  65 SW8       29.91S
WINCHESTER     CLEAR     41  30  65 SW6       29.92S
MCMINNVILLE    CLEAR     41  30  65 SW9       29.88S
SHELBYVILLE    CLEAR     45  34  65 SW7       29.90F
$$

TNZ017-018-042-046-047-250000-
NORTHEAST TENNESSEE

CITY           SKY/WX    TMP DP  RH WIND       PRES   REMARKS
TRI CITIES     PTCLDY    34  26  72 SW8       29.80R WCI  27
ELIZABETHTON   PTCLDY    32  27  80 W7        29.80R WCI  26
$$

TNZ012-013-036-069-073-074-250000-
CENTRAL EAST TENNESSEE

CITY           SKY/WX    TMP DP  RH WIND       PRES   REMARKS
KNOXVILLE      CLEAR     39  26  59 SW10      29.87R WCI  32
OAK RIDGE      CLEAR     43  26  51 SW6       29.87R
GATLINBURG     CLEAR     37  27  65 SW7       29.85R WCI  32
MORRISTOWN     CLEAR     39  27  60 SW12      29.83R WCI  32
$$

TNZ083-085-099-250000-
SOUTHEAST TENNESSEE

CITY           SKY/WX    TMP DP  RH WIND       PRES   REMARKS
CHATTANOOGA    CLEAR     46  26  45 SW6       29.91S
$$

SKY/WX REPORTED AS FAIR MEANS FEW OR NO CLOUDS BELOW
12 THOUSAND FEET.




USA.gov is the U.S. government's official web portal to all federal, state and local government web resources and services.